Terminal Aerodrome Forecast
Issued by NWS

Home | Current Version | Previous Version | Text Only | Print | Product List | Glossary On
Versions: 1 2 3 4 5 6 7 8 9 10 11 12 13 14
000
FTUS46 KLOX 251140
TAFSBA
TAF
KSBA 251140Z 2512/2612 01010KT P6SM BKN200 WS010/36035KT
     FM251400 32010KT P6SM BKN200
     FM251800 27015G25KT P6SM BKN200
     FM260100 33012KT P6SM SCT200 WS010/35035KT
     FM260600 34008KT P6SM SKC WS010/02035KT=

USA.gov is the U.S. government's official web portal to all federal, state and local government web resources and services.